Temperature
16 16 16 16 14 12 13 14 14 15 16 18 19 19 17 17 17 19 21 20 20 19 17 16 16 15 15 15 15 15 14 14 14 14 14 14 14 13 13 13 13 13 12 12 12 12 12 12 12
16 16 16 15 12 13 13 13 14 16 18 18 19 19 18 19 20 20 20 20 19 18 17 16 16 15 15 15 15 14 14 14 14 14 14 14 13 13 13 12 12 12 12 12 12 12 12 12 12
15 15 15 12 12 13 14 14 15 17 18 18 18 19 19 19 20 21 21 20 19 18 17 16 15 15 15 15 14 14 14 14 13 13 13 13 13 12 12 12 12 12 12 12 12 12 12 12 12
15 15 14 11 13 13 14 16 15 16 18 18 18 18 19 19 20 21 21 20 18 18 17 16 15 15 15 14 14 14 14 13 13 13 13 13 12 12 12 12 12 12 12 12 12 12 12 12 12
14 14 12 12 13 13 13 15 16 16 17 18 18 17 18 19 20 20 20 19 18 17 16 15 15 15 14 14 14 14 13 13 13 13 12 12 12 12 12 12 11 11 11 11 11 12 11 11 11
14 12 11 13 13 14 14 16 17 16 16 17 18 17 18 19 19 19 19 18 18 17 16 15 14 14 14 14 14 13 13 13 13 12 12 12 12 12 11 11 11 11 11 11 11 11 11 11 11
13 11 12 12 13 14 15 17 16 16 15 17 18 16 18 19 19 19 18 17 16 16 15 14 14 14 14 14 13 13 13 13 12 12 12 12 11 11 11 11 11 11 11 11 11 11 11 11 11
13 11 12 12 13 14 16 17 18 17 17 19 19 17 18 19 19 18 17 16 15 15 14 14 14 14 13 13 13 13 13 12 12 12 12 11 11 11 11 11 11 11 11 11 11 11 11 11 11
13 11 12 12 13 14 16 16 18 18 18 18 18 19 19 19 18 16 16 15 14 14 14 14 14 13 13 13 13 13 12 12 12 12 11 11 11 11 11 11 11 11 11 11 11 11 11 11 11
12 11 13 13 14 15 16 16 17 17 16 17 18 18 19 18 17 16 16 15 14 14 14 14 14 13 13 13 13 12 12 12 12 12 11 11 11 11 11 11 11 11 11 11 11 11 11 11 11
11 11 13 14 15 15 15 16 17 16 15 17 18 19 18 17 16 16 16 16 16 15 14 14 13 13 13 13 13 12 12 12 12 12 11 11 11 11 11 11 11 11 11 11 11 11 11 11 11
11 11 12 13 15 15 15 15 15 16 17 18 19 19 18 17 16 16 16 16 16 15 14 14 13 13 13 13 13 13 12 12 12 12 11 11 11 11 11 11 11 10 10 10 11 11 11 11 11
10 11 12 13 14 14 14 14 15 16 17 18 18 18 18 17 17 17 16 15 15 15 14 14 14 13 13 13 13 13 13 12 12 12 12 11 11 11 11 11 10 10 10 10 10 10 10 11 11
11 11 12 12 13 14 13 14 14 15 17 17 17 17 18 18 17 16 15 15 15 15 15 14 14 13 13 13 13 13 13 12 12 12 12 11 11 11 11 11 10 10 10 10 10 10 10 10 10
11 10 11 11 12 13 13 13 13 16 16 16 17 17 18 17 17 17 17 17 17 16 15 14 14 14 13 13 13 13 13 12 12 12 12 11 11 11 11 11 11 10 10 10 10 10 10 10 10
10 10 10 11 12 13 12 12 13 16 15 15 16 16 17 17 17 17 17 17 16 16 15 15 14 14 13 13 13 13 13 13 12 12 12 12 11 11 11 11 11 10 10 10 10 10 10 10 10
9 9 9 11 12 12 11 12 13 15 15 15 15 16 16 16 16 17 17 17 16 16 15 15 14 14 14 13 13 13 13 12 12 12 12 12 11 11 11 11 11 10 10 10 10 10 10 10 10
8 9 9 10 11 11 11 11 12 14 14 14 15 15 16 16 17 17 17 17 16 16 15 15 14 14 14 13 13 13 12 12 12 12 12 12 12 11 11 11 11 10 10 10 10 10 10 10 10
9 9 9 10 11 10 10 11 12 13 13 13 14 14 15 16 18 17 17 16 16 15 15 15 14 14 14 13 13 13 13 13 12 12 12 12 12 12 11 11 11 10 10 10 10 10 10 10 10
8 8 8 9 10 11 10 10 11 12 12 13 14 14 15 16 17 17 17 16 16 16 16 15 15 15 14 14 14 14 14 13 13 12 12 12 12 12 11 11 11 11 10 10 10 10 10 10 10
8 8 8 9 9 10 10 10 10 11 12 13 14 15 16 16 17 17 17 17 16 16 16 16 16 15 15 15 14 13 13 12 12 12 12 12 12 12 12 12 11 11 11 11 10 10 10 10 10
7 8 9 9 8 8 9 9 10 11 11 12 13 14 15 16 16 17 17 17 17 17 17 17 17 16 16 15 14 14 13 14 14 14 14 13 12 12 12 12 11 11 11 11 11 10 10 10 10
8 9 9 8 8 8 8 8 9 10 11 12 12 13 15 16 16 17 17 17 18 18 17 17 17 16 16 15 15 14 14 15 14 14 13 13 13 12 12 12 12 11 11 11 11 10 10 10 10
8 8 8 7 7 7 8 8 8 9 10 11 12 14 15 16 16 17 17 17 17 18 17 17 17 17 16 16 15 15 15 15 14 14 14 13 13 13 12 12 12 12 11 11 11 11 10 10 10
7 7 7 7 7 7 8 8 9 10 10 11 12 13 15 15 16 16 17 17 17 17 17 17 17 16 16 16 16 16 15 15 15 15 14 14 13 13 13 13 12 12 12 11 11 11 10 10 10
6 7 7 7 7 7 8 8 9 10 10 11 12 13 14 15 15 16 16 17 17 17 17 17 17 17 17 16 16 16 15 15 15 15 15 14 14 14 14 13 13 12 12 11 11 11 10 10 10
6 6 7 6 6 7 7 7 8 9 9 10 10 12 12 13 14 15 16 16 17 17 17 18 18 17 17 17 17 16 16 15 15 15 15 14 14 14 14 13 13 12 12 11 11 10 10 10 10
6 6 6 6 6 7 7 7 8 9 10 10 10 10 12 13 13 14 15 16 16 17 17 17 18 18 18 17 17 17 16 16 15 15 15 14 14 14 14 13 13 12 12 11 11 10 10 10 10
5 5 6 5 5 6 7 8 8 9 9 9 9 10 11 12 13 14 14 15 15 16 16 17 17 17 17 17 17 17 16 16 16 15 15 15 14 14 14 13 13 12 12 11 11 10 10 10 9
5 5 5 5 5 5 5 7 9 8 9 9 9 10 11 12 12 13 13 14 15 15 16 16 16 16 17 17 17 16 16 16 15 15 15 15 14 14 14 13 13 12 12 12 11 10 10 10 9
Wind_Speed
1 6 4 4 4 1 6 7 5 4 5 4 3 6 8 8 7 5 0 11 13 14 17 21 22 21 21 19 18 17 17 16 16 15 15 15 15 15 15 15 15 15 15 14 15 15 15 15 15
2 3 4 4 4 5 8 7 8 8 5 1 1 3 4 6 3 3 5 9 14 15 16 18 22 22 21 20 19 18 17 17 16 15 15 15 15 14 14 14 14 14 14 14 14 14 14 14 14
2 2 3 4 6 10 8 6 10 6 5 2 1 2 4 5 4 7 7 12 13 14 15 19 23 23 22 21 20 19 17 17 16 16 15 15 15 14 14 14 14 14 14 14 14 13 13 13 13
3 3 3 4 13 11 8 5 4 3 3 3 3 2 3 2 4 6 10 14 15 12 14 19 23 23 22 21 20 19 18 17 16 15 15 14 14 14 14 13 13 14 13 13 13 13 13 12 12
3 3 3 8 15 9 7 6 4 4 3 2 3 2 3 3 3 8 13 15 16 13 13 18 23 23 22 22 21 19 18 17 16 15 15 14 14 14 13 13 13 13 12 12 12 12 12 11 11
2 3 7 15 16 9 7 6 4 6 5 3 4 4 4 1 6 11 12 12 12 13 12 16 22 22 22 22 21 19 18 18 17 16 15 14 14 13 13 13 12 12 12 11 11 11 10 10 10
5 5 10 12 11 11 9 7 8 8 8 8 7 4 4 2 7 11 11 10 10 10 11 11 16 19 21 21 21 20 19 18 17 16 15 14 14 13 13 12 12 11 11 10 10 10 9 9 10
5 5 10 11 11 11 6 6 6 10 9 4 8 8 7 6 10 12 11 10 10 9 9 9 11 15 16 18 20 19 18 17 17 16 15 14 14 13 13 12 11 11 10 10 9 9 9 9 9
4 7 16 14 11 7 5 6 4 4 4 4 5 5 3 12 16 15 12 12 13 12 9 9 10 11 13 15 17 18 18 17 16 15 15 14 12 12 11 11 10 10 10 9 9 8 8 9 9
7 13 19 9 7 6 5 7 5 3 4 5 3 1 7 16 19 20 19 20 19 18 14 10 11 11 12 13 14 14 14 14 14 13 14 12 11 10 10 10 9 9 8 8 8 8 8 8 8
7 12 11 9 7 5 5 6 4 6 8 9 8 7 13 16 18 19 20 21 21 18 16 13 12 12 12 9 10 9 10 11 12 14 14 12 10 9 8 7 7 7 7 6 6 7 7 7 6
8 10 8 8 7 7 8 6 6 9 11 7 7 9 15 19 21 22 21 20 18 18 18 15 14 12 12 10 9 8 8 8 9 12 15 12 7 6 6 5 5 5 5 6 5 5 5 5 5
11 11 10 9 9 10 9 10 8 12 11 6 5 10 16 19 20 18 15 15 16 19 19 18 16 15 12 10 9 9 8 9 11 12 14 13 8 6 5 5 5 5 5 5 5 4 4 4 4
7 8 9 9 10 8 11 13 9 15 7 5 8 13 16 19 19 16 15 17 19 20 20 18 18 16 13 11 9 9 9 10 11 12 14 15 12 8 6 5 4 5 6 6 5 5 4 3 3
5 7 10 10 10 7 7 14 16 14 7 9 11 12 15 16 15 18 20 20 20 20 19 19 19 17 15 13 12 10 10 11 10 11 15 15 14 11 8 6 5 6 7 7 6 4 3 2 2
4 6 9 8 9 8 8 18 14 8 10 12 12 11 13 14 16 16 16 16 16 17 19 19 17 18 17 14 12 10 10 11 10 12 14 15 15 14 10 6 5 8 8 7 4 3 2 2 1
6 9 10 8 8 7 11 14 10 7 10 12 11 12 13 13 13 13 14 15 16 17 19 19 18 19 18 15 11 9 10 10 10 12 13 14 15 15 11 7 7 10 7 5 4 2 2 2 2
7 7 8 10 5 6 12 15 11 6 9 12 12 12 12 14 17 14 14 15 15 16 17 18 18 17 16 13 10 8 8 9 9 10 12 15 15 16 13 8 8 9 6 4 4 3 2 2 2
8 8 11 10 6 6 12 16 14 10 9 11 11 11 13 16 15 12 13 13 14 16 18 19 19 18 16 14 13 12 12 10 9 9 12 15 15 16 12 8 8 8 7 7 6 4 3 2 2
10 12 11 9 6 7 10 15 13 12 12 12 12 13 14 14 12 11 13 14 17 19 20 20 20 20 19 16 14 10 8 7 8 7 10 14 15 16 13 10 9 8 7 7 7 5 4 2 3
12 12 10 9 7 6 7 12 12 11 11 12 13 13 13 15 15 14 14 17 17 19 21 20 22 21 21 16 10 8 6 5 7 9 10 12 15 16 14 13 10 9 9 8 8 8 7 4 3
12 9 9 9 6 6 4 8 9 9 11 14 14 14 14 15 15 13 14 16 18 21 20 20 21 21 20 18 16 17 14 13 13 10 10 10 13 14 15 14 12 11 9 9 9 8 6 6 4
7 5 7 8 7 8 7 8 9 5 11 14 14 15 15 14 15 14 15 16 18 19 18 19 19 20 20 20 20 19 16 12 8 8 10 11 11 12 14 14 12 11 9 9 9 8 7 6 6
4 1 3 4 4 9 11 10 9 7 11 10 11 13 14 14 14 13 13 12 13 14 16 17 19 20 20 22 21 21 19 15 12 12 13 11 9 10 12 13 12 11 10 10 9 10 10 8 7
4 3 3 4 6 8 8 9 10 9 9 11 11 11 12 12 11 11 12 12 13 14 16 17 19 20 21 22 22 22 20 19 18 16 15 13 10 10 14 13 12 11 10 10 9 10 9 9 8
5 7 6 5 5 4 4 9 8 8 7 7 8 8 8 9 9 10 11 13 14 15 17 18 20 20 21 22 22 20 19 16 14 15 13 15 13 13 13 14 13 12 11 11 10 8 9 8 9
4 6 4 2 3 4 6 6 8 5 6 6 6 5 6 7 8 9 9 10 12 14 16 19 20 20 20 22 21 19 19 17 16 15 13 12 10 10 12 13 13 12 12 12 11 8 9 9 9
4 2 2 4 3 5 6 6 5 4 4 5 5 6 6 6 6 6 7 9 10 11 13 15 18 20 19 20 20 17 19 19 16 14 15 14 13 12 13 14 13 12 12 12 11 9 8 9 8
3 3 3 3 3 4 5 6 4 4 3 4 5 6 6 6 5 5 5 6 6 7 8 12 15 15 15 17 18 17 17 17 16 15 15 14 13 13 14 14 14 13 13 12 12 11 10 11 9
3 4 3 3 4 4 4 7 3 2 2 4 6 8 7 6 5 4 4 4 3 5 7 10 12 14 15 15 16 17 16 16 16 16 15 14 14 14 14 14 14 13 13 13 13 12 11 11 11
Wind_Direction
98 106 90 71 64 62 237 235 224 235 226 219 176 171 179 181 175 207 128 146 141 151 161 164 162 159 155 151 147 143 139 135 132 130 128 125 122 118 115 111 108 105 101 99 98 97 95 93 92
121 110 72 80 141 222 248 229 222 223 215 157 136 162 179 221 211 153 149 159 147 152 158 160 162 159 156 153 150 146 143 140 136 133 131 127 125 121 118 114 109 106 103 101 100 99 98 95 92
138 98 117 129 189 210 230 223 222 240 232 226 229 207 199 212 188 180 177 156 147 151 155 160 163 161 158 156 153 149 148 144 141 137 134 131 127 124 121 116 111 107 106 103 103 102 101 97 94
121 75 81 188 227 222 216 217 200 236 251 219 179 264 262 279 192 181 154 152 149 151 154 163 164 162 160 157 155 153 151 148 146 143 139 136 130 127 124 120 115 112 109 106 106 105 104 101 97
89 125 196 233 238 236 230 235 226 221 228 197 155 220 258 347 112 137 149 155 154 153 156 165 165 164 161 160 158 155 154 152 151 147 144 141 136 133 129 126 121 117 114 111 110 108 106 103 99
121 139 206 233 239 242 241 219 221 235 235 214 178 189 240 47 135 147 152 156 155 155 157 166 168 166 164 162 160 158 157 157 155 153 150 147 143 139 134 129 126 123 119 116 114 111 109 105 100
171 186 221 232 244 244 235 193 208 224 237 223 179 177 261 198 161 147 145 145 149 155 157 164 168 166 165 164 162 161 161 160 159 158 155 152 148 145 140 135 131 127 123 120 116 114 112 108 102
181 192 228 227 232 244 219 193 209 202 229 199 164 182 223 192 151 139 139 146 153 159 162 162 161 162 162 164 163 163 163 163 162 160 156 153 150 147 144 140 138 134 129 126 122 117 114 109 104
162 216 231 223 216 235 198 208 230 202 185 190 200 210 218 142 145 146 152 162 170 174 173 166 159 157 157 160 165 164 165 165 161 156 152 144 139 139 140 140 142 141 137 131 125 118 112 104 100
189 228 234 225 207 210 206 214 219 201 218 226 223 124 129 149 159 166 172 176 180 183 182 173 165 159 157 162 162 161 162 161 155 150 145 139 137 137 139 144 146 145 139 133 125 117 104 92 90
206 232 245 243 233 226 230 233 213 200 233 221 210 183 158 167 173 180 183 183 185 183 182 179 171 165 162 160 157 156 153 150 149 149 147 144 139 137 138 141 144 137 129 115 111 97 92 94 94
229 243 242 245 241 243 240 237 232 218 234 233 216 178 171 179 186 190 190 188 184 183 185 181 175 171 168 162 162 157 153 153 154 156 155 150 145 143 145 142 139 132 126 112 105 104 99 96 100
235 247 250 254 250 250 253 244 243 248 252 254 196 177 185 191 195 196 193 188 186 187 186 184 179 176 172 165 167 166 164 164 163 163 165 162 158 159 159 156 152 149 143 136 127 120 112 106 106
238 251 260 258 252 250 252 258 241 250 236 223 198 196 198 200 197 192 190 191 192 192 189 186 184 181 175 174 173 172 171 169 167 170 173 171 170 169 166 163 163 167 163 156 148 143 134 123 117
250 263 267 250 240 236 242 259 239 242 213 220 217 212 209 208 199 198 196 195 194 193 190 189 187 183 181 179 177 175 176 174 176 178 178 178 177 176 174 169 173 177 169 155 140 130 122 115 111
224 239 249 243 223 218 212 253 252 224 204 222 222 219 218 216 209 207 201 197 193 190 190 191 189 187 186 184 181 178 178 178 181 181 182 183 183 182 177 174 181 178 165 155 143 138 127 129 134
214 232 243 258 222 204 208 252 260 211 205 222 223 221 220 220 219 214 204 198 192 192 191 191 191 189 189 185 182 178 179 181 183 182 185 188 187 185 181 180 181 173 162 158 159 146 148 159 169
222 231 244 243 245 220 227 248 260 234 217 227 225 222 221 221 222 213 204 196 192 191 192 193 193 191 187 183 179 177 180 185 185 186 189 188 189 186 182 180 176 170 162 166 163 153 145 153 162
247 250 255 260 260 246 248 253 256 250 235 236 233 228 225 226 228 215 204 196 189 189 192 193 193 191 186 187 188 190 194 191 191 192 191 189 188 185 182 181 174 173 178 179 168 153 152 154 139
248 251 259 277 259 246 262 264 258 245 237 230 230 230 229 229 228 218 206 197 195 194 194 194 195 192 191 194 193 192 184 187 190 187 189 191 189 186 188 181 181 179 177 174 175 162 153 158 156
240 237 239 257 295 270 278 276 253 245 236 235 229 229 228 226 223 218 210 203 200 198 197 197 197 195 195 190 180 168 162 160 182 193 196 195 192 189 189 187 182 182 182 187 187 179 169 171 182
247 238 241 251 260 264 227 274 264 237 240 237 233 227 228 227 223 217 211 207 204 204 199 198 197 196 194 187 186 184 191 197 199 194 195 190 190 190 190 187 185 185 187 188 189 186 179 164 177
238 241 244 247 246 262 238 253 272 231 237 236 230 228 228 227 222 217 212 211 209 204 199 199 196 196 193 191 192 193 199 201 186 178 183 188 191 192 191 189 188 188 192 191 186 183 185 182 176
228 240 266 252 237 248 227 224 267 223 226 236 232 229 227 225 222 220 216 211 211 205 200 198 196 198 194 194 195 197 199 192 182 186 190 193 192 194 194 191 192 191 191 192 190 188 188 191 184
189 195 232 222 222 242 199 211 248 233 227 228 233 234 230 226 221 219 214 209 209 205 200 198 198 200 196 196 199 201 201 196 195 194 194 192 193 197 198 194 194 194 192 189 184 187 191 191 189
218 200 211 223 223 262 206 226 250 246 244 246 245 248 246 235 226 221 217 210 210 208 202 198 199 201 198 198 201 202 200 200 202 197 195 196 199 200 192 192 193 192 187 185 184 188 192 191 194
200 218 223 248 268 258 243 265 295 274 274 268 267 266 261 253 240 232 226 216 212 208 204 200 200 201 199 199 200 201 200 200 200 196 195 197 196 190 185 188 190 189 186 185 183 192 192 189 194
205 184 180 205 223 243 254 249 249 270 267 285 294 292 285 278 267 250 234 225 218 213 207 201 200 201 200 198 198 200 200 200 198 192 195 196 192 185 182 186 188 188 186 184 184 188 187 187 193
193 208 219 211 219 222 257 260 228 220 253 292 297 302 300 299 289 276 264 244 228 216 206 201 200 199 198 198 197 196 197 196 193 195 196 195 190 185 185 186 186 187 187 185 187 191 184 189 192
207 204 195 220 244 234 250 264 256 215 319 333 321 321 321 313 304 290 281 265 234 216 209 205 200 198 198 196 195 196 194 191 193 196 195 191 188 188 186 183 185 187 187 186 189 190 188 191 194
Height
1492 1493 1494 1497 1501 1507 1505 1495 1488 1484 1481 1477 1477 1479 1479 1481 1484 1485 1477 1476 1480 1484 1488 1492 1497 1500 1504 1506 1509 1511 1513 1516 1517 1519 1520 1521 1523 1524 1525 1526 1527 1528 1528 1529 1530 1530 1531 1532 1532
1490 1492 1494 1495 1503 1508 1500 1488 1484 1478 1475 1475 1475 1475 1476 1475 1475 1474 1474 1476 1480 1484 1487 1491 1496 1500 1503 1506 1508 1511 1513 1515 1517 1519 1520 1522 1523 1524 1525 1526 1527 1528 1529 1530 1530 1531 1532 1532 1533
1489 1490 1492 1494 1498 1496 1489 1480 1477 1474 1474 1474 1474 1474 1474 1472 1472 1473 1474 1476 1480 1483 1487 1491 1495 1499 1502 1505 1508 1510 1513 1515 1517 1519 1520 1522 1523 1524 1525 1527 1527 1528 1529 1530 1531 1531 1532 1533 1534
1487 1489 1490 1493 1488 1481 1477 1473 1473 1474 1473 1473 1473 1473 1472 1472 1471 1472 1473 1476 1479 1483 1487 1490 1495 1498 1502 1505 1507 1510 1512 1514 1517 1519 1520 1522 1523 1524 1526 1527 1528 1528 1529 1530 1531 1532 1533 1533 1534
1485 1486 1489 1488 1480 1474 1472 1471 1472 1472 1472 1472 1472 1471 1470 1470 1470 1471 1473 1475 1478 1482 1486 1490 1494 1498 1501 1504 1507 1509 1512 1514 1516 1518 1520 1522 1523 1524 1526 1527 1528 1529 1530 1531 1532 1533 1534 1534 1535
1482 1482 1487 1480 1473 1470 1469 1469 1471 1470 1470 1470 1471 1470 1468 1469 1470 1471 1473 1476 1479 1482 1486 1490 1494 1498 1501 1503 1506 1509 1511 1514 1516 1518 1520 1522 1523 1525 1526 1527 1528 1529 1531 1532 1533 1533 1534 1535 1536
1478 1480 1477 1473 1470 1468 1465 1466 1468 1467 1467 1467 1468 1469 1467 1468 1470 1471 1474 1477 1480 1483 1486 1490 1494 1497 1500 1503 1505 1508 1511 1513 1515 1518 1520 1521 1523 1525 1526 1527 1529 1530 1531 1532 1533 1534 1535 1535 1536
1472 1474 1471 1469 1467 1463 1462 1462 1462 1464 1463 1464 1466 1466 1465 1466 1468 1471 1474 1477 1480 1483 1487 1490 1493 1496 1499 1502 1505 1508 1510 1513 1515 1517 1519 1521 1523 1524 1526 1527 1529 1530 1531 1532 1533 1534 1535 1536 1537
1469 1471 1463 1460 1462 1460 1459 1459 1460 1460 1460 1461 1462 1462 1463 1464 1466 1469 1472 1476 1479 1482 1485 1488 1491 1495 1498 1501 1504 1507 1509 1512 1514 1516 1519 1520 1522 1524 1525 1527 1529 1530 1531 1533 1534 1535 1535 1536 1537
1464 1461 1451 1453 1455 1456 1456 1456 1457 1458 1457 1457 1458 1459 1460 1461 1463 1465 1467 1470 1474 1478 1482 1486 1489 1493 1496 1499 1502 1505 1508 1511 1513 1515 1517 1520 1522 1523 1525 1527 1528 1530 1532 1533 1534 1535 1536 1537 1538
1456 1453 1450 1451 1452 1453 1453 1453 1455 1455 1455 1453 1454 1455 1457 1459 1461 1462 1464 1466 1469 1474 1478 1483 1487 1491 1494 1497 1500 1504 1506 1509 1512 1514 1517 1519 1521 1523 1525 1527 1528 1530 1532 1533 1534 1535 1536 1537 1538
1452 1448 1448 1448 1450 1450 1450 1450 1451 1450 1448 1450 1452 1453 1454 1455 1456 1458 1460 1463 1467 1471 1475 1479 1484 1488 1492 1495 1498 1502 1504 1507 1510 1513 1515 1518 1520 1522 1524 1526 1528 1530 1531 1533 1534 1535 1536 1537 1539
1448 1446 1446 1446 1447 1447 1447 1446 1446 1444 1445 1447 1448 1450 1451 1451 1452 1455 1459 1462 1465 1468 1472 1476 1481 1485 1489 1493 1496 1500 1502 1505 1508 1511 1514 1516 1519 1521 1523 1526 1527 1529 1531 1532 1534 1535 1536 1537 1538
1444 1443 1443 1443 1443 1444 1444 1441 1442 1436 1441 1443 1444 1445 1446 1447 1449 1452 1455 1458 1461 1464 1468 1473 1477 1481 1486 1490 1493 1497 1501 1504 1507 1509 1512 1515 1518 1520 1523 1525 1527 1529 1530 1532 1533 1535 1536 1537 1538
1442 1442 1440 1438 1439 1439 1441 1438 1433 1432 1437 1438 1439 1440 1442 1443 1446 1447 1449 1453 1456 1460 1465 1469 1473 1478 1482 1487 1491 1495 1498 1501 1504 1507 1510 1513 1516 1519 1521 1523 1526 1528 1529 1531 1532 1534 1535 1536 1537
1440 1441 1439 1433 1434 1435 1441 1433 1425 1429 1432 1433 1434 1436 1437 1439 1441 1443 1447 1450 1454 1458 1462 1466 1471 1474 1479 1483 1488 1492 1496 1499 1502 1505 1508 1511 1514 1517 1519 1522 1524 1527 1528 1530 1531 1533 1534 1535 1536
1439 1439 1436 1433 1430 1430 1434 1428 1422 1424 1426 1427 1428 1430 1432 1434 1436 1439 1443 1446 1450 1455 1459 1463 1467 1471 1475 1480 1485 1489 1493 1496 1500 1503 1506 1509 1512 1515 1517 1520 1523 1525 1527 1528 1530 1531 1532 1534 1535
1436 1435 1433 1433 1428 1428 1428 1424 1421 1420 1422 1422 1423 1424 1426 1428 1430 1434 1438 1442 1446 1451 1456 1460 1464 1468 1473 1478 1482 1486 1490 1493 1496 1500 1503 1506 1509 1512 1515 1518 1520 1522 1524 1526 1528 1529 1531 1532 1534
1432 1432 1432 1429 1426 1428 1424 1421 1418 1417 1418 1418 1418 1419 1420 1421 1425 1429 1433 1437 1442 1446 1451 1455 1459 1464 1468 1472 1476 1480 1483 1488 1492 1495 1499 1503 1506 1509 1512 1515 1517 1520 1522 1524 1526 1527 1529 1530 1532
1431 1432 1431 1427 1424 1424 1422 1418 1413 1411 1411 1411 1412 1413 1414 1416 1419 1423 1427 1431 1435 1439 1444 1448 1453 1458 1462 1466 1470 1475 1479 1483 1487 1492 1495 1499 1502 1505 1508 1511 1514 1517 1519 1521 1523 1525 1526 1528 1529
1428 1429 1428 1428 1424 1421 1422 1415 1409 1404 1404 1404 1405 1406 1407 1410 1412 1416 1420 1424 1428 1432 1436 1441 1446 1451 1456 1461 1466 1471 1476 1480 1483 1486 1490 1494 1497 1501 1504 1507 1510 1513 1515 1517 1520 1522 1523 1525 1527
1425 1423 1424 1424 1427 1426 1424 1420 1405 1401 1399 1398 1397 1398 1400 1402 1405 1409 1413 1416 1420 1424 1430 1434 1439 1444 1449 1455 1459 1463 1466 1470 1474 1479 1484 1488 1492 1496 1500 1503 1506 1509 1511 1514 1516 1518 1520 1522 1523
1421 1420 1421 1422 1425 1426 1422 1423 1405 1398 1395 1390 1389 1390 1392 1395 1398 1401 1405 1409 1413 1418 1423 1428 1433 1438 1443 1448 1452 1457 1461 1465 1470 1475 1479 1483 1487 1491 1494 1498 1501 1504 1507 1509 1512 1514 1516 1518 1519
1418 1420 1421 1422 1424 1423 1415 1419 1404 1397 1388 1384 1383 1383 1385 1388 1391 1394 1398 1403 1407 1412 1416 1421 1426 1430 1435 1440 1445 1449 1454 1459 1464 1468 1473 1477 1481 1485 1489 1492 1496 1499 1501 1504 1507 1510 1512 1514 1515
1418 1423 1425 1425 1423 1416 1407 1409 1396 1384 1380 1378 1378 1377 1378 1381 1384 1387 1391 1395 1399 1404 1408 1413 1418 1423 1428 1432 1437 1442 1447 1452 1457 1461 1466 1470 1474 1478 1482 1486 1490 1493 1496 1499 1502 1505 1507 1509 1510
1418 1420 1422 1421 1417 1412 1406 1401 1388 1377 1375 1374 1374 1373 1373 1375 1377 1380 1383 1387 1391 1396 1400 1405 1410 1414 1419 1424 1429 1435 1440 1445 1450 1455 1459 1464 1468 1472 1476 1480 1484 1487 1491 1494 1497 1499 1501 1504 1505
1416 1417 1416 1418 1415 1414 1404 1396 1386 1376 1374 1372 1371 1370 1370 1371 1372 1374 1377 1380 1383 1388 1392 1397 1401 1406 1411 1416 1422 1427 1432 1437 1442 1447 1453 1457 1462 1466 1470 1474 1478 1481 1485 1488 1491 1493 1496 1498 1500
1413 1413 1416 1417 1415 1410 1401 1396 1388 1377 1374 1371 1370 1369 1368 1368 1368 1370 1371 1374 1377 1380 1384 1389 1394 1398 1403 1408 1414 1419 1424 1430 1435 1441 1445 1450 1455 1460 1464 1468 1472 1475 1479 1482 1485 1488 1490 1492 1494
1414 1415 1414 1414 1414 1412 1404 1391 1377 1375 1373 1372 1370 1368 1367 1366 1365 1366 1367 1368 1371 1374 1377 1381 1385 1390 1395 1401 1406 1411 1417 1422 1428 1433 1438 1443 1448 1453 1457 1461 1465 1469 1472 1476 1479 1482 1484 1486 1488
1412 1413 1415 1416 1414 1412 1409 1392 1373 1372 1371 1371 1370 1368 1366 1365 1364 1363 1363 1364 1365 1367 1370 1374 1378 1382 1387 1393 1398 1404 1409 1415 1420 1425 1430 1436 1441 1446 1450 1455 1459 1462 1466 1469 1472 1475 1478 1480 1482